[[{"header":{"parameterUnit":"m.s-1","parameterCategory":2,"la1":30.2992,"la2":30.254,"lo1":-89.0895,"lo2":-89.0443,"dy":0.0025,"dx":0.0025,"nx":19,"ny":19,"refTime":"2026-05-15T09:00:00:Z","depth":"0","parameterNumber":2,"parameterNumberName":"U-component_of_CURRENTS"},"data":[0,0,0,0.459,0.4593,0.4717,0.4718,0.4915,0.4917,0,0,0,0,0,0,0,0,0,0,0,0.4547,0.4548,0.459,0.4594,0.4717,0.4718,0.4914,0.4917,0,0,0,0,0,0,0,0,0,0,0,0.4546,0.4548,0.4549,0.4594,0.4717,0.4718,0.4914,0.4809,0,0,0,0,0,0,0,0,0,0,0.4683,0.4631,0.4547,0.4549,0.4595,0.4717,0.4718,0.4803,0.4815,0.4872,0,0.49,0,0.492,0.4931,0.4932,0,0,0,0.4586,0.462,0.4666,0.4549,0.4596,0.4717,0.4659,0.481,0.4824,0.4888,0.4903,0.491,0.4923,0.4933,0.4934,0.5224,0.5225,0,0,0.4579,0.4559,0.4657,0.4675,0.4642,0.4655,0.4663,0.4818,0.4832,0.4904,0.4915,0.4927,0.4934,0.4936,0.5222,0.5224,0,0,0,0.4564,0.4554,0.4594,0.4667,0.4691,0.4659,0.4668,0.4824,0.4842,0.4917,0.4929,0.4936,0.4938,0.522,0.5223,0.5302,0,0,0,0.456,0.4546,0.4591,0.4579,0.4688,0.4752,0.4671,0.4831,0.4849,0.4928,0.4936,0.494,0.5219,0.5222,0.5296,0.5342,0,0,0,0.4539,0.4544,0.4564,0.4578,0.4637,0.475,0.4775,0.4835,0.4858,0.4932,0.4941,0.5218,0.5221,0.5291,0.5333,0.5539,0,0,0,0.4504,0.455,0.4564,0.4637,0.4636,0.4775,0.4774,0.4856,0.492,0.4937,0.5219,0.5223,0.5289,0.5328,0.5531,0.5415,0.5441,0,0,0.4542,0.4554,0.4603,0.4619,0.4745,0.4756,0.4919,0.4975,0.5002,0.5165,0.5172,0.5298,0.5332,0.5537,0.5623,0.5643,0,0,0,0.4603,0.4631,0.4678,0.4753,0.485,0.496,0.5016,0.5088,0.5221,0.506,0.535,0.537,0.5497,0.5411,0.5429,0.5141,0.5239,0.5239,0.5239,0.4596,0.4666,0.4752,0.4852,0.4958,0.5107,0.5228,0.5342,0.5329,0.5411,0.5472,0.5731,0.5638,0.5651,0.5356,0.551,0.551,0.551,0.5511,0.4634,0.4677,0.4795,0.4893,0.5042,0.5187,0.5444,0.5485,0.5738,0.5631,0.5751,0.5542,0.5673,0.5352,0.5517,0.5516,0.5515,0.5514,0.5514,0.4584,0.4619,0.4686,0.4853,0.5047,0.5246,0.5525,0.5692,0.5825,0.5942,0.5919,0.5915,0.5607,0.6021,0.6022,0.6023,0.6024,0.6025,0.6025,0.4496,0.4576,0.4656,0.484,0.4975,0.5222,0.5595,0.5791,0.6001,0.6035,0.6035,0.5656,0.5889,0.584,0.6043,0.604,0.6037,0.6036,0.6035,0.4454,0.4487,0.4615,0.4732,0.5032,0.5176,0.5567,0.5885,0.6127,0.6204,0.5802,0.6121,0.611,0.6092,0.605,0.6298,0.6298,0.6298,0.6298,0.4411,0.4441,0.4597,0.4772,0.4983,0.5177,0.5303,0.555,0.5728,0.5677,0.575,0.5506,0.5509,0.5448,0.5445,0.5385,0.5458,0.5456,0.5455,0.4412,0.4476,0.4549,0.4713,0.4952,0.5066,0.4994,0.4888,0.5121,0.5395,0.5385,0.5421,0.5031,0.5058,0.4929,0.4947,0.4837,0,0]},{"header":{"parameterUnit":"m.s-1","parameterCategory":2,"la1":30.2992,"la2":30.254,"lo1":-89.0895,"lo2":-89.0443,"dy":0.0025,"dx":0.0025,"nx":19,"ny":19,"refTime":"2026-05-15T09:00:00:Z","depth":"0","parameterNumber":3,"parameterNumberName":"V-component_of_CURRENTS"},"data":[0,0,0,0.0381,0.0381,0.0341,0.034,0.0281,0.0281,0,0,0,0,0,0,0,0,0,0,0,0.0393,0.0393,0.0381,0.0381,0.0341,0.034,0.0281,0.0281,0,0,0,0,0,0,0,0,0,0,0,0.0393,0.0393,0.0393,0.0381,0.0341,0.034,0.0281,0.031,0,0,0,0,0,0,0,0,0,0,0.0349,0.0368,0.0393,0.0393,0.0381,0.0341,0.034,0.0312,0.0309,0.0301,0,0.0302,0,0.0297,0.0278,0.0278,0,0,0,0.0368,0.0371,0.036,0.0393,0.038,0.0341,0.0355,0.031,0.0306,0.0297,0.0301,0.0299,0.0296,0.0278,0.0277,0.0349,0.035,0,0,0.037,0.0383,0.0363,0.0358,0.0379,0.0357,0.0354,0.0308,0.0308,0.0301,0.0297,0.0295,0.0277,0.0277,0.0348,0.0349,0,0,0,0.0385,0.0384,0.0374,0.0361,0.0358,0.0356,0.0353,0.031,0.0307,0.0297,0.0294,0.0277,0.0276,0.0347,0.0348,0.0509,0,0,0,0.0386,0.0394,0.0376,0.0382,0.0359,0.0336,0.0356,0.031,0.0304,0.0294,0.0277,0.0276,0.0345,0.0348,0.0502,0.0647,0,0,0,0.0393,0.0395,0.0393,0.0383,0.0372,0.0336,0.033,0.0308,0.0303,0.0278,0.0276,0.0345,0.0347,0.0496,0.0633,0.0816,0,0,0,0.0402,0.0442,0.0393,0.0444,0.0372,0.0424,0.033,0.0342,0.033,0.0277,0.0346,0.0348,0.0494,0.0625,0.0807,0.0992,0.1051,0,0,0.0467,0.0449,0.0485,0.0441,0.0519,0.0428,0.0521,0.0447,0.0368,0.0354,0.0356,0.0504,0.0632,0.0814,0.1144,0.12,0,0,0,0.0516,0.0545,0.056,0.0588,0.0592,0.0628,0.0555,0.0541,0.0522,0.0375,0.0513,0.0591,0.07,0.079,0.0835,0.0525,0.036,0.036,0.036,0.0626,0.0635,0.0715,0.0734,0.0767,0.0765,0.0804,0.0771,0.0648,0.0671,0.0725,0.0987,0.1082,0.1118,0.0794,0.0688,0.0689,0.0689,0.069,0.077,0.0826,0.0847,0.0926,0.0951,0.1022,0.105,0.0995,0.1088,0.091,0.1006,0.096,0.1177,0.0813,0.07,0.0699,0.0697,0.0696,0.0695,0.0853,0.0884,0.0924,0.1049,0.1166,0.12,0.1415,0.1359,0.1292,0.1373,0.1476,0.1474,0.1158,0.1408,0.141,0.1411,0.1413,0.1414,0.1414,0.0921,0.0965,0.1078,0.1193,0.1303,0.1482,0.164,0.176,0.183,0.1744,0.1744,0.1233,0.1208,0.1185,0.1437,0.1433,0.143,0.1428,0.1426,0.1031,0.104,0.1224,0.1338,0.1624,0.1931,0.2051,0.2363,0.2418,0.2505,0.1793,0.194,0.1934,0.1896,0.189,0.2311,0.2311,0.2311,0.2311,0.1094,0.1116,0.1381,0.1613,0.1903,0.2153,0.2689,0.2876,0.2547,0.2256,0.1974,0.1751,0.1729,0.1691,0.1658,0.1637,0.1984,0.1982,0.1981,0.118,0.1253,0.1465,0.1698,0.2036,0.2446,0.2988,0.3235,0.2544,0.192,0.1509,0.1523,0.1128,0.1119,0.0992,0.0971,0.0912,0,0]}],[{"header":{"parameterUnit":"m.s-1","parameterCategory":2,"la1":30.2992,"la2":30.254,"lo1":-89.0895,"lo2":-89.0443,"dy":0.0025,"dx":0.0025,"nx":19,"ny":19,"refTime":"2026-05-15T09:00:00:Z","depth":"2","parameterNumber":2,"parameterNumberName":"U-component_of_CURRENTS"},"data":[0,0,0,0.3657,0.3661,0.381,0.381,0.3915,0.3915,0,0,0,0,0,0,0,0,0,0,0,0.3583,0.3584,0.3657,0.3662,0.381,0.381,0.3914,0.3915,0,0,0,0,0,0,0,0,0,0,0,0.3583,0.3584,0.3585,0.3662,0.381,0.381,0.3914,0.3817,0,0,0,0,0,0,0,0,0,0,0.3681,0.3645,0.3584,0.3585,0.3663,0.381,0.381,0.3813,0.3823,0.3831,0,0.3861,0,0.3912,0.3923,0.3923,0,0,0,0.3637,0.3637,0.3676,0.3586,0.3665,0.3809,0.3736,0.3819,0.3831,0.3844,0.3863,0.3869,0.3913,0.3924,0.3924,0.4127,0.4128,0,0,0.3628,0.361,0.3668,0.3683,0.3713,0.3731,0.3741,0.3827,0.3841,0.3864,0.3872,0.3915,0.3924,0.3925,0.4126,0.4127,0,0,0,0.3622,0.3604,0.3642,0.3677,0.3723,0.3736,0.3747,0.3837,0.385,0.3874,0.3916,0.3925,0.3926,0.4124,0.4126,0.4176,0,0,0,0.3615,0.3602,0.3638,0.3628,0.3722,0.3799,0.3755,0.3842,0.3856,0.3916,0.3925,0.3927,0.4122,0.4125,0.4172,0.4216,0,0,0,0.3575,0.3599,0.3617,0.3627,0.3705,0.3799,0.3816,0.3846,0.3883,0.3923,0.3928,0.4121,0.4125,0.4167,0.4209,0.4396,0,0,0,0.3546,0.3593,0.3617,0.3672,0.3704,0.3825,0.3816,0.3899,0.3939,0.3925,0.4123,0.4126,0.4166,0.4204,0.439,0.4176,0.419,0,0,0.3587,0.3597,0.3625,0.3651,0.3752,0.3802,0.3913,0.3952,0.3994,0.408,0.4085,0.4173,0.4208,0.4395,0.4368,0.4376,0,0,0,0.3625,0.3633,0.3665,0.3733,0.3829,0.3931,0.3985,0.4032,0.4141,0.4042,0.4227,0.425,0.4365,0.4223,0.4231,0.4142,0.4141,0.4141,0.4141,0.362,0.3666,0.3709,0.3773,0.387,0.4028,0.4123,0.4215,0.4198,0.4278,0.4329,0.4559,0.4404,0.4409,0.4362,0.4362,0.4363,0.4363,0.4363,0.3643,0.3637,0.3723,0.3787,0.3923,0.4048,0.4257,0.4312,0.4513,0.4432,0.4543,0.4328,0.4419,0.4368,0.4367,0.4366,0.4366,0.4366,0.4365,0.3573,0.3579,0.3632,0.3763,0.3897,0.4075,0.4304,0.4483,0.4609,0.4716,0.4648,0.4642,0.4617,0.4802,0.4803,0.4804,0.4805,0.4806,0.4806,0.3491,0.3535,0.3605,0.373,0.3816,0.4028,0.4378,0.4549,0.4729,0.4732,0.4731,0.4709,0.4695,0.4648,0.4822,0.482,0.4818,0.4816,0.4815,0.3396,0.3454,0.3537,0.3626,0.3826,0.3852,0.4255,0.4491,0.4745,0.475,0.4767,0.4763,0.4754,0.4742,0.4699,0.4878,0.4878,0.4878,0.4878,0.3331,0.3372,0.3457,0.3558,0.3673,0.3774,0.3828,0.4006,0.4323,0.4412,0.4431,0.4199,0.4207,0.4155,0.4157,0.4097,0.412,0.4119,0.4117,0.3299,0.3335,0.334,0.3446,0.3537,0.3592,0.341,0.3336,0.3652,0.4084,0.4262,0.4835,0.4535,0.4532,0.4482,0.4474,0.4389,0,0]},{"header":{"parameterUnit":"m.s-1","parameterCategory":2,"la1":30.2992,"la2":30.254,"lo1":-89.0895,"lo2":-89.0443,"dy":0.0025,"dx":0.0025,"nx":19,"ny":19,"refTime":"2026-05-15T09:00:00:Z","depth":"2","parameterNumber":3,"parameterNumberName":"V-component_of_CURRENTS"},"data":[0,0,0,0.019,0.0189,0.0151,0.0151,0.0073,0.0072,0,0,0,0,0,0,0,0,0,0,0,0.0199,0.0199,0.019,0.0189,0.0151,0.0151,0.0073,0.0072,0,0,0,0,0,0,0,0,0,0,0,0.0199,0.0199,0.0199,0.0189,0.0151,0.0151,0.0073,0.0105,0,0,0,0,0,0,0,0,0,0,0.0144,0.0165,0.0199,0.0199,0.0189,0.0151,0.0151,0.0107,0.0103,0.0086,0,0.0088,0,0.0086,0.0068,0.0067,0,0,0,0.0174,0.0168,0.0159,0.0199,0.0189,0.0152,0.0164,0.0105,0.0101,0.0081,0.0087,0.0085,0.0085,0.0067,0.0067,0.0098,0.0099,0,0,0.0176,0.0187,0.0162,0.0157,0.0189,0.0165,0.0163,0.0103,0.0101,0.0087,0.0083,0.0084,0.0067,0.0066,0.0098,0.0099,0,0,0,0.0192,0.0188,0.0181,0.016,0.016,0.0165,0.0162,0.0103,0.0102,0.0082,0.0083,0.0066,0.0066,0.0097,0.0098,0.0232,0,0,0,0.0193,0.0199,0.0182,0.0187,0.0161,0.0136,0.0164,0.0106,0.0099,0.0083,0.0066,0.0065,0.0096,0.0097,0.0227,0.0329,0,0,0,0.0199,0.0199,0.0198,0.0188,0.0179,0.0137,0.0131,0.0104,0.01,0.0067,0.0065,0.0095,0.0097,0.0222,0.0318,0.0444,0,0,0,0.0205,0.0242,0.0199,0.0241,0.018,0.0217,0.0132,0.0136,0.0119,0.0066,0.0096,0.0098,0.022,0.0312,0.0437,0.0507,0.0546,0,0,0.0264,0.0249,0.0277,0.0239,0.0301,0.022,0.0284,0.0211,0.0142,0.0108,0.0109,0.0228,0.0318,0.0443,0.0623,0.0659,0,0,0,0.0304,0.0329,0.0339,0.0359,0.0357,0.0384,0.0309,0.0279,0.0247,0.0143,0.0232,0.0285,0.0359,0.0386,0.0414,0.0107,0.0107,0.0107,0.0107,0.0399,0.0403,0.0469,0.0481,0.0504,0.0489,0.0506,0.0453,0.0345,0.0355,0.0395,0.0588,0.0616,0.0639,0.0371,0.0372,0.0372,0.0372,0.0373,0.0522,0.0566,0.0579,0.0646,0.066,0.0711,0.07,0.0644,0.0664,0.0527,0.0591,0.0527,0.0678,0.0383,0.0381,0.038,0.0379,0.0378,0.0377,0.0586,0.0614,0.0648,0.0755,0.0857,0.0877,0.1046,0.096,0.0839,0.0884,0.0903,0.09,0.0702,0.0906,0.0907,0.0908,0.0909,0.091,0.091,0.0641,0.068,0.079,0.0892,0.0999,0.116,0.1255,0.1308,0.1243,0.11,0.11,0.0769,0.0752,0.0734,0.0926,0.0923,0.0921,0.092,0.0919,0.0734,0.0755,0.0929,0.1044,0.1324,0.1585,0.1644,0.1742,0.1709,0.1676,0.1223,0.121,0.1188,0.1163,0.1155,0.1445,0.1445,0.1445,0.1445,0.0799,0.0822,0.1089,0.1323,0.1606,0.1803,0.2114,0.2048,0.1793,0.1561,0.1555,0.142,0.1397,0.1376,0.1346,0.1336,0.1675,0.1675,0.1675,0.0887,0.0959,0.1176,0.1413,0.1748,0.2073,0.232,0.2208,0.18,0.1679,0.1542,0.1471,0.1249,0.1222,0.116,0.1123,0.1095,0,0]}],[{"header":{"parameterUnit":"m.s-1","parameterCategory":2,"la1":30.2992,"la2":30.254,"lo1":-89.0895,"lo2":-89.0443,"dy":0.0025,"dx":0.0025,"nx":19,"ny":19,"refTime":"2026-05-15T09:00:00:Z","depth":"4","parameterNumber":2,"parameterNumberName":"U-component_of_CURRENTS"},"data":[0,0,0,0.2282,0.2287,0.25,0.2501,0.2662,0.2663,0,0,0,0,0,0,0,0,0,0,0,0.2217,0.2219,0.2282,0.2287,0.25,0.2501,0.2662,0.2663,0,0,0,0,0,0,0,0,0,0,0,0.2217,0.2219,0.2221,0.2288,0.25,0.2501,0.2662,0.2528,0,0,0,0,0,0,0,0,0,0,0.2335,0.2299,0.2218,0.2221,0.2289,0.25,0.2501,0.2523,0.2536,0.2535,0,0.2587,0,0.2625,0.2672,0.2672,0,0,0,0.2285,0.2288,0.2338,0.2222,0.2291,0.2499,0.2403,0.2531,0.2546,0.2552,0.259,0.2597,0.2628,0.2673,0.2673,0.2818,0.2818,0,0,0.2273,0.2258,0.2328,0.2348,0.237,0.2396,0.241,0.2542,0.2569,0.2591,0.2601,0.2631,0.2674,0.2675,0.2817,0.2818,0,0,0,0.2241,0.225,0.23,0.2341,0.2387,0.2403,0.2418,0.2563,0.2579,0.2603,0.2632,0.2674,0.2676,0.2816,0.2817,0.2889,0,0,0,0.2233,0.2231,0.2294,0.2288,0.2386,0.2495,0.2437,0.257,0.2587,0.2632,0.2674,0.2677,0.2816,0.2817,0.2885,0.2896,0,0,0,0.2203,0.2228,0.2258,0.2286,0.2378,0.2494,0.2519,0.2575,0.2604,0.2673,0.2678,0.2815,0.2817,0.2882,0.2892,0.3012,0,0,0,0.217,0.2214,0.2259,0.2325,0.2377,0.2479,0.2519,0.2618,0.2681,0.2675,0.2816,0.2817,0.2881,0.2889,0.3008,0.2624,0,0,0,0.2191,0.2217,0.2252,0.2296,0.2375,0.2448,0.2551,0.2659,0.2699,0.2762,0.2767,0.2886,0.2891,0.3011,0.2715,0,0,0,0,0.2234,0.2256,0.2291,0.2359,0.2442,0.2539,0.2635,0.2703,0.2829,0.2746,0.2897,0.2897,0.2972,0.2735,0.2825,0.2824,0.2824,0.2824,0.2824,0.2208,0.2256,0.23,0.2371,0.2458,0.261,0.271,0.2816,0.2849,0.2931,0.2965,0.311,0.286,0.2984,0.2984,0.2985,0.2985,0.2985,0.2985,0.2191,0.2193,0.229,0.2357,0.2479,0.2596,0.2792,0.2879,0.3065,0.304,0.3111,0.2833,0.2993,0.2991,0.299,0.2989,0.2989,0.2988,0.2988,0.2129,0.2125,0.2203,0.2301,0.2443,0.2618,0.277,0.2958,0.3122,0.3207,0.3022,0.318,0.3168,0.329,0.3291,0.3291,0.3292,0.3292,0.3293,0.2012,0.2072,0.2098,0.224,0.231,0.2498,0.2792,0.2917,0.3141,0.3056,0.3265,0.3213,0.3203,0.3187,0.3302,0.33,0.3299,0.3298,0.3297,0.1865,0.193,0.1948,0.2,0.2145,0.2253,0.2586,0.2794,0.2935,0.2978,0.2987,0.3,0.295,0.2947,0.2919,0.296,0.2955,0.2951,0,0.1747,0.1783,0.178,0.1787,0.1848,0.2067,0.2172,0.2411,0.2656,0.256,0.2932,0.2931,0.294,0.2869,0.2861,0.2817,0,0,0,0.1616,0.1651,0.1598,0.1648,0.1667,0.1886,0.2189,0.2196,0.2624,0.266,0.2839,0.2868,0.3086,0.3329,0.3284,0.3272,0.3244,0,0]},{"header":{"parameterUnit":"m.s-1","parameterCategory":2,"la1":30.2992,"la2":30.254,"lo1":-89.0895,"lo2":-89.0443,"dy":0.0025,"dx":0.0025,"nx":19,"ny":19,"refTime":"2026-05-15T09:00:00:Z","depth":"4","parameterNumber":3,"parameterNumberName":"V-component_of_CURRENTS"},"data":[0,0,0,0.0139,0.0138,0.0114,0.0114,0.0059,0.0059,0,0,0,0,0,0,0,0,0,0,0,0.0145,0.0145,0.0139,0.0138,0.0114,0.0114,0.0059,0.0059,0,0,0,0,0,0,0,0,0,0,0,0.0145,0.0145,0.0145,0.0138,0.0114,0.0114,0.0059,0.0081,0,0,0,0,0,0,0,0,0,0,0.0106,0.0121,0.0145,0.0145,0.0138,0.0114,0.0114,0.0082,0.008,0.0067,0,0.007,0,0.0068,0.0056,0.0055,0,0,0,0.0127,0.0123,0.0118,0.0145,0.0138,0.0114,0.0122,0.0081,0.0078,0.0063,0.0069,0.0067,0.0067,0.0055,0.0055,0.0071,0.0072,0,0,0.0129,0.0137,0.012,0.0116,0.014,0.0123,0.0121,0.0079,0.0079,0.0069,0.0066,0.0067,0.0055,0.0055,0.0071,0.0071,0,0,0,0.014,0.0138,0.0133,0.0118,0.0119,0.0123,0.0121,0.008,0.0079,0.0065,0.0066,0.0055,0.0054,0.007,0.0071,0.0183,0,0,0,0.014,0.0145,0.0134,0.0138,0.012,0.0103,0.0123,0.0082,0.0077,0.0066,0.0055,0.0054,0.007,0.0071,0.0179,0.0245,0,0,0,0.0144,0.0145,0.0145,0.0138,0.0133,0.0104,0.01,0.0081,0.0078,0.0055,0.0054,0.0069,0.007,0.0175,0.0238,0.0278,0,0,0,0.0149,0.0174,0.0146,0.0177,0.0134,0.0163,0.01,0.0106,0.0094,0.0054,0.007,0.0071,0.0174,0.0233,0.0274,0.0304,0,0,0,0.0189,0.0179,0.02,0.0175,0.0224,0.0165,0.0216,0.0164,0.0107,0.0078,0.0079,0.018,0.0237,0.0278,0.0377,0,0,0,0,0.0219,0.0237,0.0246,0.0265,0.0267,0.029,0.0238,0.021,0.0183,0.0107,0.0175,0.0207,0.0229,0.0233,0.0077,0.0077,0.0077,0.0077,0.0077,0.0279,0.0288,0.0343,0.0361,0.0381,0.0371,0.0376,0.0328,0.0258,0.0261,0.0294,0.0398,0.0406,0.0277,0.0278,0.0278,0.0279,0.0279,0.0279,0.0365,0.0404,0.0427,0.0485,0.0505,0.0547,0.052,0.0475,0.0462,0.0386,0.04,0.0345,0.029,0.0288,0.0286,0.0285,0.0284,0.0283,0.0283,0.0406,0.0433,0.0471,0.057,0.066,0.0678,0.0761,0.0694,0.0585,0.0603,0.0576,0.0473,0.0468,0.0601,0.0602,0.0602,0.0603,0.0603,0.0603,0.0435,0.0479,0.0572,0.0673,0.0768,0.0881,0.0903,0.0887,0.0777,0.0721,0.0638,0.0506,0.0495,0.0485,0.0611,0.061,0.0609,0.0608,0.0607,0.0491,0.0517,0.0656,0.0755,0.0976,0.1061,0.1086,0.1024,0.0999,0.0927,0.0764,0.0754,0.0715,0.0699,0.0694,0.0886,0.0887,0.0888,0,0.0529,0.0551,0.0748,0.0924,0.1104,0.1175,0.12,0.1161,0.1001,0.0988,0.0964,0.0783,0.0774,0.0728,0.0715,0.0711,0,0,0,0.0584,0.0635,0.0781,0.0956,0.1164,0.1209,0.1213,0.1171,0.1041,0.1006,0.091,0.0904,0.0766,0.0634,0.0548,0.0536,0.0515,0,0]}]]